GW3010 Weather Reports


time (UTC)temp
F
wind
direction
speed
knots
gust
knots
rain 1hr
in
rain 24hr
in
rain mn
in
humidity
%
barometer
mb
20260503212746 65 353 1.7 2.6 0.00 0.00 0.00 69 1013.1
20260503212244 66 190 0.9 1.7 0.00 0.00 0.00 69 1013.2
20260503211741 66 252 2.6 5.2 0.00 0.00 0.00 68 1013.1
20260503211238 66 94 0.9 1.7 0.00 0.00 0.00 68 1012.9
20260503210733 66 197 1.7 2.6 0.00 0.00 0.00 68 1013.1
20260503210231 66 198 0.9 1.7 0.00 0.00 0.00 69 1012.9
20260503205726 66 210 2.6 6.1 0.00 0.00 0.00 68 1013.0
20260503205222 66 216 1.7 6.1 0.00 0.00 0.00 68 1013.0
20260503204719 66 132 0.9 1.7 0.00 0.00 0.00 69 1013.0
20260503204217 66 255 2.6 3.5 0.00 0.00 0.00 67 1013.0
20260503203714 65 183 0.0 1.7 0.00 0.00 0.00 70 1012.7
20260503203211 65 359 2.6 6.1 0.00 0.00 0.00 69 1013.0
20260503202708 66 193 2.6 5.2 0.00 0.00 0.00 67 1013.2
20260503202206 64 219 0.9 0.9 0.00 0.00 0.00 69 1013.1
20260503201704 63 179 0.0 0.9 0.00 0.00 0.00 70 1013.2
20260503201201 64 222 0.9 1.7 0.00 0.00 0.00 68 1013.2
20260503200657 64 234 0.9 0.9 0.00 0.00 0.00 70 1013.2
20260503200153 64 214 0.0 0.9 0.00 0.00 0.00 71 1013.3
20260503195645 64 214 0.0 0.9 0.00 0.00 0.00 71 1013.2
20260503195142 64 203 0.9 0.9 0.00 0.00 0.00 70 1013.2
20260503194639 64 242 0.9 1.7 0.00 0.00 0.00 70 1013.2
20260503194134 64 242 0.9 1.7 0.00 0.00 0.00 70 1013.6
20260503193631 65 146 0.0 0.9 0.00 0.00 0.00 71 1013.3
20260503193126 64 172 0.0 2.6 0.00 0.00 0.00 72 1013.2
20260503192622 64 221 1.7 3.5 0.00 0.00 0.00 71 1013.4
20260503192118 63 242 1.7 3.5 0.00 0.00 0.00 72 1013.4
20260503191615 64 104 1.7 1.7 0.00 0.00 0.00 72 1013.2
20260503191112 64 162 2.6 3.5 0.00 0.00 0.00 72 1013.2
20260503190609 64 158 1.7 7.0 0.00 0.00 0.00 71 1013.5
20260503190106 65 294 0.9 2.6 0.00 0.00 0.00 70 1013.3
20260503185603 65 262 1.7 2.6 0.00 0.00 0.00 68 1013.2
20260503185103 65 292 0.9 3.5 0.00 0.00 0.00 70 1013.1
20260503184558 65 169 0.0 3.5 0.00 0.00 0.00 68 1013.3
20260503184055 66 156 0.9 5.2 0.00 0.00 0.00 68 1013.2
20260503183552 65 186 0.9 3.5 0.00 0.00 0.00 70 1013.3
20260503183049 66 189 0.9 1.7 0.00 0.00 0.00 70 1013.1
20260503182547 66 133 0.9 1.7 0.00 0.00 0.00 70 1013.5
20260503182045 66 196 1.7 2.6 0.00 0.00 0.00 72 1013.1
20260503181542 64 180 0.9 2.6 0.00 0.00 0.00 73 1013.3
20260503181038 63 310 0.9 1.7 0.00 0.00 0.00 74 1013.3
20260503180535 64 127 0.9 2.6 0.00 0.00 0.00 73 1013.3
20260503180032 63 268 1.7 2.6 0.00 0.00 0.00 74 1013.1
20260503175530 63 204 0.9 2.6 0.00 0.00 0.00 73 1013.1
20260503175027 63 314 1.7 2.6 0.00 0.00 0.00 72 1013.2
20260503174524 62 233 1.7 3.5 0.00 0.00 0.00 73 1012.9
20260503174020 62 330 1.7 3.5 0.00 0.00 0.00 73 1013.0
20260503173515 62 246 0.9 2.6 0.00 0.00 0.00 74 1013.1
20260503173012 61 149 0.9 1.7 0.00 0.00 0.00 75 1013.1
20260503172510 61 153 0.9 3.5 0.00 0.00 0.00 75 1013.3
20260503172006 60 149 0.9 1.7 0.00 0.00 0.00 76 1013.2
20260503171503 60 153 0.9 1.7 0.00 0.00 0.00 76 1013.3
20260503171001 60 146 0.0 1.7 0.00 0.00 0.00 78 1013.2
20260503170457 59 147 0.0 1.7 0.00 0.00 0.00 78 1013.3
20260503150849 56 145 0.0 0.0 0.00 0.00 0.00 86 1012.6
20260503150345 55 145 0.0 0.9 0.00 0.00 0.00 87 1012.6
20260503140309 54 147 0.0 0.0 0.00 0.00 0.00 89 1011.7
20260503131233 53 148 0.0 0.0 0.00 0.00 0.00 89 1011.2
20260503130731 53 146 0.0 0.9 0.00 0.00 0.00 89 1011.2
20260503130228 53 146 0.0 0.9 0.00 0.00 0.00 89 1011.4
20260503120154 53 147 0.0 0.9 0.00 0.00 0.00 90 1011.2
20260503110621 53 145 0.0 0.0 0.00 0.00 0.00 90 1011.4
20260503110118 53 146 0.0 0.9 0.00 0.00 0.00 90 1011.2
20260503090502 53 191 0.0 2.6 0.00 0.00 0.00 89 1011.5
20260503081422 53 172 0.0 0.0 0.00 0.00 0.00 90 1012.1
20260503080919 53 179 0.0 0.9 0.00 0.00 0.00 90 1012.2
20260503080410 53 176 0.0 0.9 0.00 0.00 0.00 90 1012.2
20260503072847 53 176 0.9 0.9 0.00 0.00 0.00 90 1012.2
20260503072344 54 168 0.0 0.9 0.00 0.00 0.00 90 1012.0
20260503071840 53 177 0.0 0.9 0.00 0.00 0.00 90 1012.2
20260503071337 54 169 0.9 2.6 0.00 0.00 0.00 90 1012.2
20260503070833 54 218 1.7 1.7 0.00 0.00 0.00 90 1012.1
20260503070332 54 199 0.0 0.9 0.00 0.00 0.00 90 1012.1
20260503060256 54 181 0.0 2.6 0.00 0.00 0.00 88 1012.2
20260503054744 54 192 0.0 0.9 0.00 0.00 0.00 88 1012.2
20260503054240 54 182 0.9 1.7 0.00 0.00 0.00 88 1012.3
20260503053738 54 203 0.9 2.6 0.00 0.00 0.00 88 1012.6
20260503053237 54 178 0.0 1.7 0.00 0.00 0.00 88 1012.4
20260503052733 54 179 0.9 2.6 0.00 0.00 0.00 89 1012.4
20260503052230 54 172 0.0 2.6 0.00 0.00 0.00 89 1012.3
20260503051724 54 235 0.9 2.6 0.00 0.00 0.00 88 1012.5
20260503051223 54 193 0.9 3.5 0.00 0.00 0.00 88 1012.4
20260503050719 54 175 0.0 2.6 0.00 0.00 0.00 88 1012.5
20260503050215 54 279 3.5 5.2 0.00 0.00 0.00 88 1012.6
20260503045713 54 185 0.9 1.7 0.00 0.00 0.00 88 1012.4
20260503045210 54 173 0.9 1.7 0.00 0.00 0.00 88 1012.4
20260503044707 54 190 0.0 0.9 0.00 0.00 0.00 88 1012.5
20260503044204 54 162 0.9 6.1 0.00 0.00 0.00 88 1012.5
20260503043701 54 204 0.9 3.5 0.00 0.00 0.00 88 1012.4
20260503043158 54 205 2.6 3.5 0.00 0.00 0.00 88 1012.2
20260503042654 54 239 0.9 2.6 0.00 0.00 0.00 88 1012.4
20260503042151 54 133 0.9 2.6 0.00 0.00 0.00 88 1012.5
20260503041647 54 231 1.7 5.2 0.00 0.00 0.00 88 1012.3
20260503041145 54 189 0.9 2.6 0.00 0.00 0.00 88 1012.4
20260503040642 54 185 0.9 5.2 0.00 0.00 0.00 88 1012.3
20260503040140 54 201 1.7 3.5 0.00 0.00 0.00 88 1012.5
20260503035636 54 193 0.9 1.7 0.00 0.00 0.00 88 1012.2
20260503035134 54 206 1.7 5.2 0.00 0.00 0.00 88 1012.1
20260503034631 54 168 0.0 3.5 0.00 0.00 0.00 88 1012.3
20260503034128 54 299 1.7 2.6 0.00 0.00 0.00 89 1012.3
20260503033625 54 213 0.9 3.5 0.00 0.00 0.00 89 1011.9
20260503033122 54 210 0.9 1.7 0.00 0.00 0.00 89 1012.2
20260503032621 54 153 1.7 2.6 0.00 0.00 0.00 88 1011.8
20260503032119 54 166 0.9 3.5 0.00 0.00 0.00 88 1011.9
20260503031616 54 211 1.7 2.6 0.00 0.00 0.00 88 1011.8
20260503031114 54 211 0.9 1.7 0.00 0.00 0.00 88 1011.6
20260503030609 54 200 1.7 3.5 0.00 0.00 0.00 88 1011.6
20260503030106 54 177 0.0 0.9 0.00 0.00 0.00 88 1011.4
20260503025603 54 175 0.0 1.7 0.00 0.00 0.00 88 1011.4
20260503025101 54 174 1.7 2.6 0.00 0.00 0.00 88 1011.4
20260503024557 55 283 1.7 1.7 0.00 0.00 0.00 87 1011.5
20260503024054 55 184 0.9 1.7 0.00 0.00 0.00 87 1011.5
20260503023551 55 310 1.7 3.5 0.00 0.00 0.00 87 1011.5
20260503023048 55 209 0.9 6.1 0.00 0.00 0.00 87 1011.5
20260503022544 55 160 0.9 3.5 0.00 0.00 0.00 86 1011.5
20260503022039 55 164 0.0 1.7 0.00 0.00 0.00 86 1011.3
20260503021536 55 174 0.9 1.7 0.00 0.00 0.00 86 1011.4
20260503021033 55 148 0.0 2.6 0.00 0.00 0.00 85 1011.5
20260503020530 56 211 0.9 1.7 0.00 0.00 0.00 84 1011.6
20260503020027 56 212 1.7 2.6 0.00 0.00 0.00 84 1011.6
20260503015524 56 237 0.9 2.6 0.00 0.00 0.00 84 1011.6
20260503015021 56 240 2.6 2.6 0.00 0.00 0.00 84 1011.7
20260503014517 56 323 1.7 2.6 0.00 0.00 0.00 84 1011.4
20260503014015 56 197 0.9 1.7 0.00 0.00 0.00 84 1011.7
20260503013512 56 176 1.7 2.6 0.00 0.00 0.00 83 1011.9
20260503013010 57 179 0.0 1.7 0.00 0.00 0.00 83 1011.7
20260503012507 57 194 0.9 2.6 0.00 0.00 0.00 83 1011.6
20260503012003 57 197 0.9 2.6 0.00 0.00 0.00 83 1011.9
20260503011500 57 208 0.9 1.7 0.00 0.00 0.00 83 1011.8
20260503010957 57 253 1.7 3.5 0.00 0.00 0.00 83 1012.0
20260503010453 57 181 0.9 5.2 0.00 0.00 0.00 83 1011.8
20260503005951 57 244 0.9 3.5 0.00 0.00 0.00 82 1011.7
20260503005448 58 195 0.9 3.5 0.00 0.00 0.00 81 1012.1
20260503004944 58 174 0.0 1.7 0.00 0.00 0.00 81 1011.7
20260503004441 58 182 1.7 1.7 0.00 0.00 0.00 81 1011.9
20260503003939 58 164 0.9 2.6 0.00 0.00 0.00 81 1011.9
20260503003436 58 200 1.7 6.1 0.00 0.00 0.00 81 1011.9
20260503002933 59 183 0.9 0.9 0.00 0.00 0.00 80 1011.9
20260503002430 59 174 0.9 1.7 0.00 0.00 0.00 80 1012.0
20260503001926 59 209 1.7 2.6 0.00 0.00 0.00 80 1012.0
20260503001423 59 22 1.7 3.5 0.00 0.00 0.00 80 1012.1
20260503000921 59 201 1.7 2.6 0.00 0.00 0.00 79 1012.1
20260503000417 59 209 0.9 1.7 0.00 0.00 0.00 80 1012.2
20260502235914 60 347 3.5 5.2 0.00 0.00 0.00 79 1012.3
20260502235411 60 213 0.9 1.7 0.00 0.00 0.00 79 1012.0
20260502234909 59 223 0.9 2.6 0.00 0.00 0.00 79 1012.1
20260502234405 60 160 0.0 2.6 0.00 0.00 0.00 79 1011.9
20260502233902 59 233 0.9 2.6 0.00 0.00 0.00 80 1012.1
20260502233358 59 205 2.6 3.5 0.00 0.00 0.00 80 1012.2
20260502232855 59 205 1.7 2.6 0.00 0.00 0.00 80 1012.4
20260502232351 60 230 1.7 3.5 0.00 0.00 0.00 79 1012.2
20260502231848 61 200 1.7 2.6 0.00 0.00 0.00 78 1012.4
20260502231346 60 180 0.0 3.5 0.00 0.00 0.00 78 1012.5
20260502230844 61 226 0.9 5.2 0.00 0.00 0.00 77 1012.7
20260502230341 61 179 0.9 1.7 0.00 0.00 0.00 77 1012.6
20260502225838 61 217 1.7 2.6 0.00 0.00 0.00 78 1012.7
20260502225334 61 297 1.7 3.5 0.00 0.00 0.00 78 1012.8
20260502224832 61 188 0.9 3.5 0.00 0.00 0.00 77 1012.9
20260502224328 61 192 0.9 1.7 0.00 0.00 0.00 77 1012.7
20260502223825 61 206 1.7 3.5 0.00 0.00 0.00 76 1013.0
20260502223323 60 182 1.7 2.6 0.00 0.00 0.00 77 1013.0
20260502222820 60 244 1.7 3.5 0.00 0.00 0.00 77 1013.1
20260502222318 60 185 0.9 3.5 0.00 0.00 0.00 77 1013.3
20260502221814 60 182 1.7 1.7 0.00 0.00 0.00 77 1013.4
20260502221310 60 186 0.9 1.7 0.00 0.00 0.00 78 1013.2
20260502220808 60 180 1.7 2.6 0.00 0.00 0.00 78 1013.4
20260502220303 60 187 0.0 1.7 0.00 0.00 0.00 79 1013.4
20260502215800 60 203 1.7 2.6 0.00 0.00 0.00 79 1013.4
20260502215257 60 201 0.9 2.6 0.00 0.00 0.00 78 1013.7
20260502214754 60 199 1.7 1.7 0.00 0.00 0.00 77 1013.5
20260502214251 60 195 0.9 1.7 0.00 0.00 0.00 78 1013.5
20260502213748 60 238 1.7 3.5 0.00 0.00 0.00 77 1013.8
20260502213245 60 306 1.7 2.6 0.00 0.00 0.00 76 1013.6